Regional Weather Roundup
Issued by NWS

Home | Current Version | Previous Version | Text Only | Print | Product List | Glossary Off
Versions: 1 2 3 4 5 6 7 8 9 10 11 12 13 14 15 16 17 18 19 20 21 22 23 24 25 26 27

000
ASUS45 KBOU 271707
RWRCO

WEATHER ROUNDUP FOR COLORADO
NATIONAL WEATHER SERVICE DENVER/BOULDER CO
1100 AM MDT WED JUL 27 2016

NOTE: "FAIR" INDICATES FEW OR NO CLOUDS BELOW 12000 FEET WITH NO
SIGNIFICANT WEATHER AND/OR OBSTRUCTIONS TO VISIBILITY.

COZ001>005-013-030-031-271800-
...NORTHWEST COLORADO...

CITY           SKY/WX    TMP DP  RH WIND       PRES   REMARKS
CRAIG          FAIR      81  40  23 NE6       30.29S
HAYDEN         FAIR      75  37  25 SE6       30.32S
MEEKER         FAIR      80  42  25 CALM      30.30F
MOUNT WERNER   NOT AVBL
STEAMBOAT SPGS FAIR      75  43  31 CALM      30.34S
WALDEN         FAIR      72  37  28 SE3       30.43S
$$

COZ006>008-011-271800-
...WEST CENTRAL VALLEYS...

CITY           SKY/WX    TMP DP  RH WIND       PRES   REMARKS
GRAND JUNCTION FAIR      83  41  22 SE6       30.20S
MONTROSE       FAIR      80  50  34 W6        30.28F
EAGLE          NOT AVBL
RIFLE          FAIR      80  43  26 N5        30.26F
DELTA          NOT AVBL
NUCLA          NOT AVBL
$$

COZ017>023-064>068-271800-
...SOUTHWEST COLORADO...

CITY           SKY/WX    TMP DP  RH WIND       PRES   REMARKS
DURANGO        FAIR      78  47  33 SW3       30.33F
CORTEZ         FAIR      84  45  25 S3        30.27F
PAGOSA SPRINGS FAIR      75  38  26 SW3       30.40F
TELLURIDE      FAIR      73  38  28 NW7       30.55S
WOLF CREEK PAS FAIR      59  32  36 NE21G31   30.75F
$$

COZ009-010-012-014-032>034-037-058>063-271800-
...CENTRAL COLORADO...

CITY           SKY/WX    TMP DP  RH WIND       PRES   REMARKS
ASPEN          FAIR      77  41  27 VRB5      30.41F
BUENA VISTA    FAIR      76  32  20 CALM      30.41F
COPPER MTN     FAIR      61  28  29 NW16G23   30.75S
BERTHOUD PASS  FAIR      54  39  58 N16G24    30.77S
COTTONWOOD PAS FAIR      75  28  17 CALM      30.57F
GUNNISON       FAIR      66  43  42 W3        30.47F
KREMMLING      FAIR      70  37  30 CALM      30.42F
LEADVILLE      FAIR      68  17  14 NW14G22   30.56S
SALIDA         FAIR      76  39  26 S3        30.45F
SUNLIGHT       FAIR      66  36  32 MISG      30.69S
WILKERSON PASS FAIR      64  30  27 N7        30.70S
$$

COZ069>075-271800-
...SAN LUIS VALLEY/SANGRE DE CRISTO MOUNTAINS...

CITY           SKY/WX    TMP DP  RH WIND       PRES   REMARKS
ALAMOSA        FAIR      72  45  37 SW5       30.40F
LA VETA PASS   FAIR      68  37  32 W5        30.60R
SAGUACHE       FAIR      75  45  33 S8        30.41F
$$

COZ035-036-038>040-271800-
...NORTHERN COLORADO FRONT RANGE...

CITY           SKY/WX    TMP DP  RH WIND       PRES   REMARKS
DENVER INTL AP FAIR      78  53  41 N9        30.23R
DMNS CITY PARK   N/A     79  49  34 N7        30.23F
AURORA         MOSUNNY   76  50  39 NW6       30.25S
FRONT RANGE AP MOSUNNY   81  54  39 N8        30.24S
ERIE MUNI ARPT FAIR      77  50  39 N5        30.22F
BOULDER MUN AP FAIR      77  46  33 CALM      30.22S
CENTENNIAL     FAIR      77  47  34 NW8       30.26S
BROOMFIELD     MOSUNNY   77  46  33 VRB5      30.26S
LONGMONT       NOT AVBL
$$

COZ041-046-047-076>085-087-088-271800-
...PIKES PEAK/PALMER DIVIDE AND SOUTHERN FOOTHILLS...

CITY           SKY/WX    TMP DP  RH WIND       PRES   REMARKS
COLO. SPRINGS  FAIR      81  56  42 E12       30.27S
A. F. ACADEMY  MOSUNNY   84  34  16 N8        30.27F
SCHRIEVER AFB  NOT AVBL
ELLICOTT       FAIR     N/A N/A N/A CALM      30.25F
FALCON         NOT AVBL
FORT CARSON    FAIR      79  57  46 E8        30.24R
LIMON          FAIR      83  52  34 CALM      30.21S
MONUMENT HILL  FAIR      73  46  38 N13       30.36R
TRINIDAD       NOT AVBL
$$

COZ042>045-048>051-090-091-271800-
...NORTHEAST COLORADO...

CITY           SKY/WX    TMP DP  RH WIND       PRES   REMARKS
GREELEY ARPT   FAIR      77  57  50 E8        30.21S
AKRON          FAIR      77  58  51 VRB3      30.18S
BURLINGTON     FAIR      77  62  59 N5        30.19R
WRAY           FAIR      79  59  50 SE3       30.15F
STERLING       NOT AVBL
HOLYOKE        NOT AVBL
FORT MORGAN    NOT AVBL
$$

COZ086-089-092>099-271800-
...SOUTHEAST COLORADO...

CITY           SKY/WX    TMP DP  RH WIND       PRES   REMARKS
PUEBLO         FAIR      83  54  36 W5        30.16S
LA JUNTA       FAIR      82  60  47 CALM      30.14F
LAMAR          FAIR      82  63  52 VRB3      30.11S
SPRINGFIELD      N/A     86  60  41 E9        30.14R
$$




USA.gov is the U.S. government's official web portal to all federal, state and local government web resources and services.